| time (UTC) | temp F | wind direction | speed MPH | gust MPH | rain 1hr in | rain 24hr in | rain mn in | humidity % | barometer mb |
| 20260507213017 | 77 | 0.0 | 0.0 | 0.00 | 0.00 | 0.00 | 17 | 874.2 | |
| 20260507212016 | 76 | 0.0 | 0.0 | 0.00 | 0.00 | 0.00 | 17 | 874.6 | |
| 20260507211017 | 76 | 0.0 | 0.0 | 0.00 | 0.00 | 0.00 | 17 | 874.8 | |
| 20260507210017 | 76 | 0.0 | 0.0 | 0.00 | 0.00 | 0.00 | 17 | 875.0 | |
| 20260507205017 | 76 | 0.0 | 0.0 | 0.00 | 0.00 | 0.00 | 17 | 874.9 | |
| 20260507204016 | 75 | 0.0 | 0.0 | 0.00 | 0.00 | 0.00 | 17 | 875.2 | |
| 20260507203018 | 76 | 0.0 | 0.0 | 0.00 | 0.00 | 0.00 | 17 | 875.4 | |
| 20260507202016 | 75 | 0.0 | 0.0 | 0.00 | 0.00 | 0.00 | 18 | 875.5 | |
| 20260507201037 | 77 | 0.0 | 0.0 | 0.00 | 0.00 | 0.00 | 17 | 875.5 | |
| 20260507200018 | 75 | 0.0 | 0.0 | 0.00 | 0.00 | 0.00 | 19 | 875.6 | |
| 20260507195017 | 73 | 0.0 | 0.0 | 0.00 | 0.00 | 0.00 | 19 | 876.1 | |
| 20260507194016 | 72 | 0.0 | 0.0 | 0.00 | 0.00 | 0.00 | 20 | 876.1 | |
| 20260507193018 | 73 | 0.0 | 0.0 | 0.00 | 0.00 | 0.00 | 20 | 876.2 | |
| 20260507192016 | 71 | 0.0 | 0.0 | 0.00 | 0.00 | 0.00 | 21 | 876.5 | |
| 20260507191016 | 71 | 0.0 | 0.0 | 0.00 | 0.00 | 0.00 | 21 | 876.7 | |
| 20260507190016 | 70 | 0.0 | 0.0 | 0.00 | 0.00 | 0.00 | 21 | 876.8 | |
| 20260507185016 | 71 | 0.0 | 0.0 | 0.00 | 0.00 | 0.00 | 21 | 877.1 | |
| 20260507184017 | 70 | 0.0 | 0.0 | 0.00 | 0.00 | 0.00 | 21 | 877.2 | |
| 20260507183016 | 71 | 0.0 | 0.0 | 0.00 | 0.00 | 0.00 | 21 | 877.5 | |
| 20260507182016 | 69 | 0.0 | 0.0 | 0.00 | 0.00 | 0.00 | 22 | 877.4 | |
| 20260507181016 | 68 | 0.0 | 0.0 | 0.00 | 0.00 | 0.00 | 23 | 877.7 | |
| 20260507180036 | 67 | 0.0 | 0.0 | 0.00 | 0.00 | 0.00 | 24 | 877.9 | |
| 20260507175016 | 68 | 0.0 | 0.0 | 0.00 | 0.00 | 0.00 | 23 | 877.8 | |
| 20260507174038 | 67 | 0.0 | 0.0 | 0.00 | 0.00 | 0.00 | 24 | 878.0 | |
| 20260507173016 | 67 | 0.0 | 0.0 | 0.00 | 0.00 | 0.00 | 24 | 878.1 | |
| 20260507172016 | 65 | 0.0 | 0.0 | 0.00 | 0.00 | 0.00 | 25 | 878.2 | |
| 20260507171016 | 66 | 0.0 | 0.0 | 0.00 | 0.00 | 0.00 | 24 | 878.2 | |
| 20260507170016 | 65 | 0.0 | 0.0 | 0.00 | 0.00 | 0.00 | 24 | 878.4 | |
| 20260507165017 | 64 | 0.0 | 0.0 | 0.00 | 0.00 | 0.00 | 23 | 878.4 | |
| 20260507164016 | 65 | 0.0 | 0.0 | 0.00 | 0.00 | 0.00 | 23 | 878.5 | |
| 20260507163036 | 64 | 0.0 | 0.0 | 0.00 | 0.00 | 0.00 | 24 | 878.7 | |
| 20260507162036 | 63 | 0.0 | 0.0 | 0.00 | 0.00 | 0.00 | 24 | 878.7 | |
| 20260507161015 | 62 | 0.0 | 0.0 | 0.00 | 0.00 | 0.00 | 23 | 878.8 | |
| 20260507160017 | 62 | 0.0 | 0.0 | 0.00 | 0.00 | 0.00 | 25 | 878.9 | |
| 20260507155015 | 61 | 0.0 | 0.0 | 0.00 | 0.00 | 0.00 | 25 | 878.8 | |
| 20260507154015 | 61 | 0.0 | 0.0 | 0.00 | 0.00 | 0.00 | 24 | 878.9 | |
| 20260507153101 | 62 | 0.0 | 0.0 | 0.00 | 0.00 | 0.00 | 24 | 879.1 | |
| 20260507152016 | 61 | 0.0 | 0.0 | 0.00 | 0.00 | 0.00 | 25 | 879.2 | |
| 20260507151016 | 60 | 0.0 | 0.0 | 0.00 | 0.00 | 0.00 | 27 | 879.0 | |
| 20260507150015 | 60 | 0.0 | 0.0 | 0.00 | 0.00 | 0.00 | 27 | 879.2 | |
| 20260507145015 | 59 | 0.0 | 0.0 | 0.00 | 0.00 | 0.00 | 30 | 879.3 | |
| 20260507144017 | 58 | 0.0 | 0.0 | 0.00 | 0.00 | 0.00 | 34 | 879.3 | |
| 20260507143016 | 57 | 0.0 | 0.0 | 0.00 | 0.00 | 0.00 | 39 | 879.3 | |
| 20260507142016 | 56 | 0.0 | 0.0 | 0.00 | 0.00 | 0.00 | 45 | 879.3 | |
| 20260507141018 | 55 | 0.0 | 0.0 | 0.00 | 0.00 | 0.00 | 46 | 879.3 | |
| 20260507140039 | 54 | 0.0 | 0.0 | 0.00 | 0.00 | 0.00 | 48 | 879.4 | |
| 20260507135019 | 52 | 0.0 | 0.0 | 0.00 | 0.00 | 0.00 | 51 | 879.3 | |
| 20260507134018 | 51 | 0.0 | 0.0 | 0.00 | 0.00 | 0.00 | 54 | 879.2 | |
| 20260507133017 | 51 | 0.0 | 0.0 | 0.00 | 0.00 | 0.00 | 55 | 879.2 | |
| 20260507132038 | 50 | 0.0 | 0.0 | 0.00 | 0.00 | 0.00 | 57 | 879.2 | |
| 20260507131038 | 50 | 0.0 | 0.0 | 0.00 | 0.00 | 0.00 | 58 | 879.0 | |
| 20260507130017 | 48 | 0.0 | 0.0 | 0.00 | 0.00 | 0.00 | 60 | 878.8 | |
| 20260507125017 | 47 | 0.0 | 0.0 | 0.00 | 0.00 | 0.00 | 62 | 878.7 | |
| 20260507124018 | 46 | 0.0 | 0.0 | 0.00 | 0.00 | 0.00 | 63 | 878.6 | |
| 20260507123038 | 45 | 0.0 | 0.0 | 0.00 | 0.00 | 0.00 | 65 | 878.6 | |
| 20260507122038 | 45 | 0.0 | 0.0 | 0.00 | 0.00 | 0.00 | 65 | 878.5 | |
| 20260507121037 | 45 | 0.0 | 0.0 | 0.00 | 0.00 | 0.00 | 65 | 878.5 | |
| 20260507120018 | 46 | 0.0 | 0.0 | 0.00 | 0.00 | 0.00 | 65 | 878.4 | |
| 20260507115018 | 45 | 0.0 | 0.0 | 0.00 | 0.00 | 0.00 | 65 | 878.4 | |
| 20260507114017 | 45 | 0.0 | 0.0 | 0.00 | 0.00 | 0.00 | 66 | 878.6 | |
| 20260507113018 | 45 | 0.0 | 0.0 | 0.00 | 0.00 | 0.00 | 66 | 878.7 | |
| 20260507112018 | 45 | 0.0 | 0.0 | 0.00 | 0.00 | 0.00 | 67 | 878.6 | |
| 20260507111037 | 44 | 0.0 | 0.0 | 0.00 | 0.00 | 0.00 | 67 | 878.6 | |
| 20260507110018 | 45 | 0.0 | 0.0 | 0.00 | 0.00 | 0.00 | 65 | 878.5 | |
| 20260507105017 | 46 | 0.0 | 0.0 | 0.00 | 0.00 | 0.00 | 64 | 878.4 | |
| 20260507104037 | 46 | 0.0 | 0.0 | 0.00 | 0.00 | 0.00 | 64 | 878.3 | |
| 20260507103016 | 47 | 0.0 | 0.0 | 0.00 | 0.00 | 0.00 | 63 | 878.4 | |
| 20260507102017 | 47 | 0.0 | 0.0 | 0.00 | 0.00 | 0.00 | 63 | 878.4 | |
| 20260507101019 | 47 | 0.0 | 0.0 | 0.00 | 0.00 | 0.00 | 63 | 878.4 | |
| 20260507100037 | 47 | 0.0 | 0.0 | 0.00 | 0.00 | 0.00 | 63 | 878.3 | |
| 20260507095022 | 47 | 0.0 | 0.0 | 0.00 | 0.00 | 0.00 | 63 | 878.2 | |
| 20260507094017 | 48 | 0.0 | 0.0 | 0.00 | 0.00 | 0.00 | 63 | 878.4 | |
| 20260507093017 | 48 | 0.0 | 0.0 | 0.00 | 0.00 | 0.00 | 62 | 878.3 | |
| 20260507092017 | 48 | 0.0 | 0.0 | 0.00 | 0.00 | 0.00 | 62 | 878.4 | |
| 20260507091039 | 49 | 0.0 | 0.0 | 0.00 | 0.00 | 0.00 | 61 | 878.5 | |
| 20260507090018 | 49 | 0.0 | 0.0 | 0.00 | 0.00 | 0.00 | 61 | 878.5 | |
| 20260507085016 | 49 | 0.0 | 0.0 | 0.00 | 0.00 | 0.00 | 60 | 878.3 | |
| 20260507084017 | 50 | 0.0 | 0.0 | 0.00 | 0.00 | 0.00 | 60 | 878.3 | |
| 20260507083017 | 50 | 0.0 | 0.0 | 0.00 | 0.00 | 0.00 | 59 | 878.3 | |
| 20260507082017 | 50 | 0.0 | 0.0 | 0.00 | 0.00 | 0.00 | 58 | 878.3 | |
| 20260507081017 | 51 | 0.0 | 0.0 | 0.00 | 0.00 | 0.00 | 56 | 878.4 | |
| 20260507080038 | 51 | 0.0 | 0.0 | 0.00 | 0.00 | 0.00 | 56 | 878.2 | |
| 20260507075016 | 52 | 0.0 | 0.0 | 0.00 | 0.00 | 0.00 | 55 | 878.3 | |
| 20260507074017 | 53 | 0.0 | 0.0 | 0.00 | 0.00 | 0.00 | 53 | 878.2 | |
| 20260507073038 | 53 | 0.0 | 0.0 | 0.00 | 0.00 | 0.00 | 51 | 878.1 | |
| 20260507072016 | 53 | 0.0 | 0.0 | 0.00 | 0.00 | 0.00 | 49 | 878.0 | |
| 20260507071017 | 54 | 0.0 | 0.0 | 0.00 | 0.00 | 0.00 | 47 | 878.0 | |
| 20260507070016 | 54 | 0.0 | 0.0 | 0.00 | 0.00 | 0.00 | 46 | 877.9 | |
| 20260507065016 | 55 | 0.0 | 0.0 | 0.00 | 0.00 | 0.00 | 45 | 877.9 | |
| 20260507064017 | 55 | 0.0 | 0.0 | 0.00 | 0.00 | 0.00 | 45 | 877.7 | |
| 20260507063016 | 55 | 0.0 | 0.0 | 0.00 | 0.00 | 0.00 | 44 | 877.6 | |
| 20260507062016 | 56 | 0.0 | 0.0 | 0.00 | 0.00 | 0.00 | 43 | 877.6 | |
| 20260507061017 | 56 | 0.0 | 0.0 | 0.00 | 0.00 | 0.00 | 42 | 877.7 | |
| 20260507060017 | 57 | 0.0 | 0.0 | 0.00 | 0.00 | 0.00 | 42 | 877.4 | |
| 20260507055018 | 57 | 0.0 | 0.0 | 0.00 | 0.00 | 0.00 | 42 | 877.3 | |
| 20260507054031 | 57 | 0.0 | 0.0 | 0.00 | 0.00 | 0.00 | 41 | 877.2 | |
| 20260507053039 | 58 | 0.0 | 0.0 | 0.00 | 0.00 | 0.00 | 41 | 877.1 | |
| 20260507052016 | 58 | 0.0 | 0.0 | 0.00 | 0.00 | 0.00 | 41 | 876.9 | |
| 20260507051016 | 58 | 0.0 | 0.0 | 0.00 | 0.00 | 0.00 | 41 | 876.9 | |
| 20260507050016 | 58 | 0.0 | 0.0 | 0.00 | 0.00 | 0.00 | 41 | 876.9 | |
| 20260507045016 | 59 | 0.0 | 0.0 | 0.00 | 0.00 | 0.00 | 40 | 876.7 | |
| 20260507044017 | 59 | 0.0 | 0.0 | 0.00 | 0.00 | 0.00 | 40 | 876.7 | |
| 20260507043016 | 59 | 0.0 | 0.0 | 0.00 | 0.00 | 0.00 | 39 | 876.5 | |
| 20260507042017 | 60 | 0.0 | 0.0 | 0.00 | 0.00 | 0.00 | 38 | 876.3 | |
| 20260507041042 | 60 | 0.0 | 0.0 | 0.00 | 0.00 | 0.00 | 37 | 876.3 | |
| 20260507040016 | 61 | 0.0 | 0.0 | 0.00 | 0.00 | 0.00 | 37 | 875.9 | |
| 20260507035017 | 61 | 0.0 | 0.0 | 0.00 | 0.00 | 0.00 | 37 | 875.9 | |
| 20260507034018 | 62 | 0.0 | 0.0 | 0.00 | 0.00 | 0.00 | 36 | 875.7 | |
| 20260507033016 | 63 | 0.0 | 0.0 | 0.00 | 0.00 | 0.00 | 35 | 875.6 | |
| 20260507032042 | 64 | 0.0 | 0.0 | 0.00 | 0.00 | 0.00 | 34 | 875.4 | |
| 20260507031035 | 65 | 0.0 | 0.0 | 0.00 | 0.00 | 0.00 | 32 | 875.3 | |
| 20260507030019 | 65 | 0.0 | 0.0 | 0.00 | 0.00 | 0.00 | 31 | 874.9 | |
| 20260507025019 | 67 | 0.0 | 0.0 | 0.00 | 0.00 | 0.00 | 29 | 874.8 | |
| 20260507024017 | 68 | 0.0 | 0.0 | 0.00 | 0.00 | 0.00 | 26 | 874.8 | |
| 20260507023017 | 69 | 0.0 | 0.0 | 0.00 | 0.00 | 0.00 | 21 | 874.2 | |
| 20260507022039 | 70 | 0.0 | 0.0 | 0.00 | 0.00 | 0.00 | 21 | 874.2 | |
| 20260507021019 | 70 | 0.0 | 0.0 | 0.00 | 0.00 | 0.00 | 20 | 874.1 | |
| 20260507020018 | 71 | 0.0 | 0.0 | 0.00 | 0.00 | 0.00 | 19 | 873.7 | |
| 20260507015021 | 72 | 0.0 | 0.0 | 0.00 | 0.00 | 0.00 | 19 | 873.4 | |
| 20260507014020 | 72 | 0.0 | 0.0 | 0.00 | 0.00 | 0.00 | 19 | 873.3 | |
| 20260507013018 | 73 | 0.0 | 0.0 | 0.00 | 0.00 | 0.00 | 17 | 873.2 | |
| 20260507012017 | 74 | 0.0 | 0.0 | 0.00 | 0.00 | 0.00 | 16 | 873.0 | |
| 20260507011018 | 74 | 0.0 | 0.0 | 0.00 | 0.00 | 0.00 | 17 | 872.9 | |
| 20260507010017 | 73 | 0.0 | 0.0 | 0.00 | 0.00 | 0.00 | 17 | 872.7 | |
| 20260507005017 | 73 | 0.0 | 0.0 | 0.00 | 0.00 | 0.00 | 17 | 872.7 | |
| 20260507004037 | 73 | 0.0 | 0.0 | 0.00 | 0.00 | 0.00 | 17 | 872.5 | |
| 20260507003037 | 74 | 0.0 | 0.0 | 0.00 | 0.00 | 0.00 | 17 | 872.3 | |
| 20260507002017 | 74 | 0.0 | 0.0 | 0.00 | 0.00 | 0.00 | 17 | 872.3 | |
| 20260507001017 | 74 | 0.0 | 0.0 | 0.00 | 0.00 | 0.00 | 17 | 872.1 | |
| 20260507000018 | 74 | 0.0 | 0.0 | 0.00 | 0.00 | 0.00 | 17 | 872.3 | |
| 20260506235038 | 75 | 0.0 | 0.0 | 0.00 | 0.00 | 0.00 | 17 | 872.2 | |
| 20260506234039 | 75 | 0.0 | 0.0 | 0.00 | 0.00 | 0.00 | 18 | 872.2 | |
| 20260506233018 | 74 | 0.0 | 0.0 | 0.00 | 0.00 | 0.00 | 19 | 872.2 | |
| 20260506232018 | 73 | 0.0 | 0.0 | 0.00 | 0.00 | 0.00 | 19 | 872.3 | |
| 20260506231020 | 75 | 0.0 | 0.0 | 0.00 | 0.00 | 0.00 | 18 | 872.3 | |
| 20260506230021 | 74 | 0.0 | 0.0 | 0.00 | 0.00 | 0.00 | 18 | 872.2 | |
| 20260506225040 | 74 | 0.0 | 0.0 | 0.00 | 0.00 | 0.00 | 18 | 872.2 | |
| 20260506224018 | 75 | 0.0 | 0.0 | 0.00 | 0.00 | 0.00 | 18 | 872.2 | |
| 20260506223018 | 77 | 0.0 | 0.0 | 0.00 | 0.00 | 0.00 | 17 | 872.4 | |
| 20260506222017 | 76 | 0.0 | 0.0 | 0.00 | 0.00 | 0.00 | 17 | 872.3 | |
| 20260506221018 | 75 | 0.0 | 0.0 | 0.00 | 0.00 | 0.00 | 17 | 872.2 | |
| 20260506220020 | 76 | 0.0 | 0.0 | 0.00 | 0.00 | 0.00 | 17 | 872.4 | |
| 20260506215049 | 74 | 0.0 | 0.0 | 0.00 | 0.00 | 0.00 | 18 | 872.4 | |
| 20260506214049 | 74 | 0.0 | 0.0 | 0.00 | 0.00 | 0.00 | 18 | 872.7 |